Location: Helsinki
(60.1699°N, 24.9384°E)
Time: 01:56:44
(UTC+02:00)

Transit 4A - Visible Passes

Search period start: 27 October 2020 00:00
Search period end: 06 November 2020 00:00
Orbit: 862 x 982 km, 66.8° (Epoch: 26 October)

Date Brightness Start Highest point End Pass type
(mag) Time Alt. Az. Time Alt. Az. Time Alt. Az.
27 Oct 10.5 00:12:12 10° NW 00:12:39 12° NW 00:12:39 12° NW visible
27 Oct 8.1 17:13:38 10° SW 17:20:00 86° SE 17:26:29 10° NE visible
27 Oct 8.6 19:00:40 10° W 19:06:55 53° NNW 19:11:07 21° NE visible
27 Oct 8.5 20:48:07 10° WNW 20:54:22 49° N 20:54:36 49° NNE visible
27 Oct 9.5 22:35:00 10° NW 22:38:06 30° NW 22:38:06 30° NW visible
28 Oct 8.1 17:23:00 10° SW 17:29:22 81° NW 17:35:52 10° NE visible
28 Oct 8.6 19:10:15 10° W 19:16:29 50° N 19:20:04 25° NE visible
28 Oct 8.5 20:57:37 10° WNW 21:03:34 52° N 21:03:34 52° N visible
28 Oct 9.7 22:44:22 10° NW 22:47:04 27° NW 22:47:04 27° NW visible
29 Oct 8.3 17:32:25 10° WSW 17:38:48 70° NNW 17:45:16 10° NE visible
29 Oct 8.6 19:19:50 10° W 19:26:03 48° N 19:29:02 29° NE visible
29 Oct 8.6 21:07:05 10° WNW 21:12:32 53° NNW 21:12:32 53° NNW visible
29 Oct 9.9 22:53:45 10° NW 22:56:02 23° NW 22:56:02 23° NW visible
30 Oct 8.4 17:41:56 10° WSW 17:48:16 62° NNW 17:54:30 11° NE visible
30 Oct 8.6 19:29:25 10° WNW 19:35:37 47° N 19:38:00 33° NE visible
30 Oct 8.7 21:16:31 10° NW 21:21:30 51° NNW 21:21:30 51° NNW visible
30 Oct 10.1 23:03:08 10° NW 23:05:00 20° WNW 23:05:00 20° WNW visible
31 Oct 8.5 17:51:29 10° W 17:57:47 56° NNW 18:03:29 13° ENE visible
31 Oct 8.6 19:38:58 10° WNW 19:45:12 48° N 19:46:59 39° NE visible
31 Oct 8.8 21:25:56 10° NW 21:30:29 47° NW 21:30:29 47° NW visible
31 Oct 10.2 23:12:33 10° NW 23:13:59 17° WNW 23:13:59 17° WNW visible
01 Nov 8.6 18:01:04 10° W 18:07:19 52° NNW 18:12:28 16° ENE visible
01 Nov 8.4 19:48:29 10° WNW 19:54:46 50° NNE 19:55:58 45° NE visible
01 Nov 9.0 21:35:19 10° NW 21:39:28 43° NW 21:39:28 43° NW visible
01 Nov 10.4 23:21:59 10° NW 23:22:58 14° WNW 23:22:58 14° WNW visible
02 Nov 8.6 18:10:39 10° W 18:16:52 49° N 18:21:28 18° ENE visible
02 Nov 8.3 19:57:59 10° WNW 20:04:19 54° NNE 20:04:58 52° NE visible
02 Nov 9.2 21:44:42 10° NW 21:48:28 38° NW 21:48:28 38° NW visible
02 Nov 10.5 23:31:30 10° WNW 23:31:58 12° WNW 23:31:58 12° WNW visible
03 Nov 8.6 18:20:14 10° WNW 18:26:27 48° N 18:30:29 21° ENE visible
03 Nov 8.2 20:07:26 10° WNW 20:13:49 60° NNE 20:13:59 59° NNE visible
03 Nov 9.4 21:54:05 10° NW 21:57:29 33° WNW 21:57:29 33° WNW visible
04 Nov 8.6 18:29:48 10° WNW 18:36:01 48° N 18:39:30 25° ENE visible
04 Nov 8.1 20:16:52 10° NW 20:23:01 66° NNE 20:23:01 66° NNE visible
04 Nov 9.6 22:03:28 10° NW 22:06:31 29° WNW 22:06:31 29° WNW visible
05 Nov 8.5 16:51:52 10° W 16:58:09 54° NNW 17:04:29 10° ENE visible
05 Nov 8.5 18:39:20 10° WNW 18:45:35 49° N 18:48:33 29° ENE visible
05 Nov 8.1 20:26:16 10° NW 20:32:03 69° NNW 20:32:03 69° NNW visible
05 Nov 9.8 22:12:54 10° NW 22:15:34 24° WNW 22:15:34 24° WNW visible
